Weather History for KMEH - March, 2013

Change the Weather History Date:

Friday, March 1, 2013

  Actual Average Record
Temperature  
Mean Temperature 42 °F -  
Max Temperature 52 °F 37 °F 52 °F (2013)
Min Temperature 32 °F 17 °F 1 °F (2002)
Degree Days  
Heating Degree Days 23    
Moisture  
Dew Point 34 °F    
Average Humidity 86    
Maximum Humidity 100    
Minimum Humidity 53    
Precipitation  
Precipitation 0.02 in - - ()
Sea Level Pressure  
Sea Level Pressure 30.43 in    
Wind  
Wind Speed 0 mph (North)    
Max Wind Speed 4 mph    
Max Gust Speed -    
Visibility 7 miles    
Events Rain    
Averages and records for this station are not official NWS values.
T = Trace of Precipitation, MM = Missing Value Source: NWS Daily Summary

Daily Weather History Graph

Daily Weather History Graph

Search for Another Location

Airport or City:

Trip Planner

Search our weather history database for the weather conditions in past years. The results will help you decide how hot, cold, wet, or windy it might be!

Date:

Astronomy

Mar. 01, 2013 Rise Set
Actual Time 6:31 AM PST 5:41 PM PST
Civil Twilight 6:01 AM PST 6:10 PM PST
Nautical Twilight 5:27 AM PST 6:45 PM PST
Astronomical Twilight 4:53 AM PST 7:19 PM PST
Moon 10:36 PM PST (3/1) 8:06 AM PST (3/1)
Length of Visible Light 12h 09m
Length of Day
11h 09m
Waning Gibbous, 82% of the Moon is Illuminated
Mar 1
Waning Gibbous
Mar 4
Last Quarter
Mar 11
New
Mar 19
First Quarter
Mar 27
Full

Hourly Weather History & Observations

Time (PST) Temp. Dew Point Humidity Pressure Visibility Wind Dir Wind Speed Gust Speed Precip Events Conditions
12:15 AM 35.6 °F 33.8 °F 93% 30.41 in 1.8 mi Calm Calm - 0.01 in Rain Light Rain
12:19 AM 35.6 °F 33.8 °F 93% 30.41 in 3.0 mi Calm Calm - 0.01 in Rain Light Rain
12:56 AM 35.1 °F 34.0 °F 96% 30.49 in 6.0 mi Calm Calm - 0.02 in   Overcast
1:56 AM 35.1 °F 34.0 °F 96% 30.50 in 2.5 mi Calm Calm - N/A   Overcast
2:05 AM 35.6 °F 33.8 °F 93% 30.44 in 4.0 mi Calm Calm - N/A   Overcast
2:32 AM 35.6 °F 33.8 °F 93% 30.43 in 6.0 mi Calm Calm - 0.00 in   Overcast
2:56 AM 34.0 °F 33.1 °F 96% 30.48 in 4.0 mi Calm Calm - 0.00 in   Overcast
3:09 AM 33.8 °F 33.8 °F 100% 30.42 in 2.5 mi Calm Calm - N/A   Overcast
3:17 AM 33.8 °F 32.0 °F 93% 30.41 in 1.2 mi Calm Calm - N/A   Overcast
3:37 AM 32.0 °F 30.2 °F 93% 30.41 in 1.0 mi Calm Calm - N/A   Mist
3:56 AM 32.0 °F 30.9 °F 96% 30.47 in 1.2 mi Calm Calm - N/A   Overcast
4:15 AM 33.8 °F 32.0 °F 93% 30.40 in 3.0 mi Calm Calm - N/A   Overcast
4:38 AM 32.0 °F 30.2 °F 93% 30.40 in 7.0 mi Calm Calm - N/A   Mostly Cloudy
4:56 AM 32.0 °F 30.9 °F 96% 30.48 in 10.0 mi Calm Calm - N/A   Mostly Cloudy
5:14 AM 33.8 °F 32.0 °F 93% 30.41 in 5.0 mi Calm Calm - N/A   Mostly Cloudy
5:26 AM 33.8 °F 32.0 °F 93% 30.41 in 2.5 mi Calm Calm - N/A   Scattered Clouds
5:34 AM 33.8 °F 32.0 °F 93% 30.41 in 4.0 mi Calm Calm - N/A   Mostly Cloudy
5:56 AM 34.0 °F 32.0 °F 92% 30.48 in 10.0 mi Calm Calm - N/A   Scattered Clouds
6:56 AM 34.0 °F 33.1 °F 96% 30.47 in 4.0 mi Calm Calm - N/A   Overcast
7:39 AM 35.6 °F 35.6 °F 100% 30.41 in 2.5 mi Calm Calm - N/A   Overcast
7:46 AM 35.6 °F 35.6 °F 100% 30.42 in 7.0 mi Calm Calm - N/A   Overcast
7:56 AM 36.0 °F 35.1 °F 97% 30.48 in 10.0 mi Calm Calm - N/A   Overcast
8:56 AM 41.0 °F 39.0 °F 93% 30.48 in 10.0 mi Calm Calm - N/A   Overcast
9:56 AM 43.0 °F 39.0 °F 86% 30.47 in 10.0 mi Calm Calm - N/A   Overcast
10:56 AM 46.9 °F 39.9 °F 77% 30.47 in 10.0 mi Variable 3.5 mph - N/A   Overcast
11:56 AM 50.0 °F 37.0 °F 61% 30.45 in 10.0 mi Calm Calm - N/A   Overcast
12:56 PM 52.0 °F 35.1 °F 53% 30.42 in 10.0 mi Variable 3.5 mph - N/A   Partly Cloudy
1:56 PM 52.0 °F 36.0 °F 54% 30.40 in 10.0 mi Calm Calm - N/A   Clear
2:56 PM 48.9 °F 35.1 °F 59% 30.41 in 10.0 mi Calm Calm - N/A   Partly Cloudy
3:56 PM 46.9 °F 34.0 °F 61% 30.42 in 10.0 mi Calm Calm - N/A   Clear
4:56 PM 46.0 °F 34.0 °F 63% 30.42 in 10.0 mi Calm Calm - N/A   Clear
5:56 PM 41.0 °F 34.0 °F 76% 30.41 in 10.0 mi Calm Calm - N/A   Partly Cloudy
6:56 PM 39.0 °F 34.0 °F 82% 30.42 in 10.0 mi Calm Calm - N/A   Partly Cloudy
7:56 PM 37.0 °F 34.0 °F 89% 30.42 in 10.0 mi Calm Calm - N/A   Clear
8:56 PM 37.9 °F 34.0 °F 86% 30.40 in 10.0 mi Calm Calm - N/A   Clear
9:56 PM 39.9 °F 35.1 °F 83% 30.38 in 10.0 mi Calm Calm - N/A   Scattered Clouds
10:56 PM 37.9 °F 34.0 °F 86% 30.37 in 10.0 mi Calm Calm - N/A   Clear
11:56 PM 37.9 °F 34.0 °F 86% 30.35 in 10.0 mi Calm Calm - N/A   Clear